When you browse on this site, cookies collect data to enhance your experience and personalize the content and advertising you see.
Visit our Privacy Policy to learn more. By continuing to use the site, you agree to this use of cookies and data.
  • In Slovakia
  • List of Countries
  • For 7 days
  • Water Temperature
  • Satellite Maps
  • Weather Map
  • Weather Widgets
  • user-avatar
    Login

    Hourly Weather Lubango

    Today, 10 December, Monday

    Time Temperature Precipitation Wind Pressure Humidity
    00:00 +13°C° 0 mm 1 mps 609 mmHg 79%
    01:00 +13°C° 0 mm 1 mps 608 mmHg 82%
    02:00 +12°C° 0 mm 1 mps 608 mmHg 84%
    03:00 +12°C° 0 mm 1 mps 608 mmHg 85%
    04:00 +12°C° 0 mm 1 mps 608 mmHg 87%
    05:00 +13°C° 0 mm 1 mps 609 mmHg 79%
    06:00 +14°C° 0 mm 1 mps 609 mmHg 72%
    07:00 +16°C° 0 mm 1 mps 610 mmHg 64%
    08:00 +19°C° 0 mm 1 mps 611 mmHg 52%
    09:00 +22°C° 0 mm 1 mps 613 mmHg 40%
    10:00 +25°C° 0 mm 2 mps 614 mmHg 29%
    11:00 +26°C° 0 mm 2 mps 614 mmHg 26%
    12:00 +27°C° 0 mm 3 mps 614 mmHg 24%
    13:00 +29°C° 0 mm 3 mps 614 mmHg 22%
    14:00 +28°C° 0 mm 3 mps 613 mmHg 25%
    15:00 +27°C° 0 mm 4 mps 612 mmHg 28%
    16:00 +27°C° 0 mm 4 mps 611 mmHg 31%
    17:00 +23°C° 0 mm 4 mps 611 mmHg 42%
    18:00 +21°C° 0 mm 3 mps 610 mmHg 52%
    19:00 +18°C° 0 mm 3 mps 610 mmHg 62%
    20:00 +17°C° 0 mm 2 mps 610 mmHg 68%
    21:00 +16°C° 0 mm 2 mps 610 mmHg 75%
    22:00 +15°C° 0 mm 2 mps 611 mmHg 81%
    23:00 +14°C° 0 mm 1 mps 610 mmHg 83%

    Tomorrow, 11 December, Tuesday

    Time Temperature Precipitation Wind Pressure Humidity
    00:00 +14°C° 0 mm 1 mps 610 mmHg 86%
    01:00 +13°C° 0 mm 1 mps 610 mmHg 88%
    02:00 +13°C° 0 mm 1 mps 609 mmHg 89%
    03:00 +12°C° 0 mm 1 mps 609 mmHg 90%
    04:00 +12°C° 0 mm 1 mps 608 mmHg 90%
    05:00 +13°C° 0 mm 1 mps 609 mmHg 80%
    06:00 +15°C° 0 mm 1 mps 610 mmHg 70%
    07:00 +16°C° 0 mm 1 mps 611 mmHg 60%
    08:00 +20°C° 0 mm 1 mps 612 mmHg 49%
    09:00 +23°C° 0 mm 2 mps 613 mmHg 39%
    10:00 +26°C° 0 mm 2 mps 614 mmHg 28%
    11:00 +27°C° 0 mm 2 mps 614 mmHg 26%
    12:00 +28°C° 0 mm 3 mps 614 mmHg 25%
    13:00 +29°C° 0 mm 3 mps 614 mmHg 23%
    14:00 +28°C° 0 mm 4 mps 613 mmHg 26%
    15:00 +27°C° 0 mm 4 mps 612 mmHg 29%
    16:00 +26°C° 0 mm 5 mps 611 mmHg 32%
    17:00 +23°C° 0 mm 4 mps 611 mmHg 40%
    18:00 +20°C° 0 mm 3 mps 610 mmHg 48%
    19:00 +18°C° 0 mm 3 mps 610 mmHg 56%
    20:00 +17°C° 0 mm 2 mps 610 mmHg 63%
    21:00 +16°C° 0 mm 2 mps 610 mmHg 69%
    22:00 +15°C° 0 mm 1 mps 611 mmHg 75%
    23:00 +14°C° 0 mm 1 mps 610 mmHg 77%

    Day after tomorrow, 12 December, Wednesday

    Time Temperature Precipitation Wind Pressure Humidity
    00:00 +14°C° 0 mm 1 mps 609 mmHg 80%
    01:00 +13°C° 0 mm 1 mps 609 mmHg 82%
    02:00 +13°C° 0 mm 1 mps 608 mmHg 82%
    03:00 +12°C° 0 mm 1 mps 608 mmHg 82%
    04:00 +12°C° 0 mm 1 mps 608 mmHg 82%
    05:00 +13°C° 0 mm 1 mps 608 mmHg 73%
    06:00 +15°C° 0 mm 1 mps 609 mmHg 65%
    07:00 +15°C° 0 mm 0 mps 610 mmHg 57%
    08:00 +21°C° 0 mm 1 mps 612 mmHg 45%
    09:00 +24°C° 0 mm 1 mps 613 mmHg 34%
    10:00 +27°C° 0 mm 1 mps 614 mmHg 22%
    11:00 +28°C° 0 mm 2 mps 614 mmHg 20%
    12:00 +29°C° 0 mm 2 mps 614 mmHg 18%
    13:00 +31°C° 0 mm 2 mps 613 mmHg 16%
    14:00 +30°C° 0 mm 3 mps 613 mmHg 17%
    15:00 +29°C° 0 mm 4 mps 612 mmHg 19%
    16:00 +29°C° 0 mm 4 mps 611 mmHg 20%
    17:00 +26°C° 0 mm 4 mps 610 mmHg 29%
    18:00 +22°C° 0 mm 3 mps 610 mmHg 37%
    19:00 +19°C° 0 mm 3 mps 609 mmHg 45%
    20:00 +18°C° 0 mm 2 mps 609 mmHg 50%
    21:00 +16°C° 0 mm 2 mps 609 mmHg 56%
    22:00 +15°C° 0 mm 1 mps 610 mmHg 61%
    23:00 +15°C° 0 mm 1 mps 609 mmHg 62%

    13 December, Thursday

    Time Temperature Precipitation Wind Pressure Humidity
    00:00 +14°C° 0 mm 1 mps 609 mmHg 64%
    01:00 +14°C° 0 mm 1 mps 608 mmHg 65%
    02:00 +13°C° 0 mm 1 mps 608 mmHg 63%
    03:00 +13°C° 0 mm 1 mps 608 mmHg 60%
    04:00 +13°C° 0 mm 1 mps 608 mmHg 58%
    05:00 +14°C° 0 mm 1 mps 609 mmHg 51%
    06:00 +16°C° 0 mm 1 mps 610 mmHg 45%
    07:00 +19°C° 0 mm 1 mps 611 mmHg 38%
    08:00 +22°C° 0 mm 1 mps 612 mmHg 30%
    09:00 +25°C° 0 mm 2 mps 613 mmHg 22%
    10:00 +28°C° 0 mm 2 mps 614 mmHg 15%
    11:00 +29°C° 0 mm 3 mps 614 mmHg 13%
    12:00 +31°C° 0 mm 3 mps 614 mmHg 12%
    13:00 +33°C° 0 mm 3 mps 613 mmHg 11%
    14:00 +32°C° 0 mm 4 mps 613 mmHg 13%
    15:00 +30°C° 0 mm 4 mps 612 mmHg 15%
    16:00 +29°C° 0 mm 5 mps 611 mmHg 17%
    17:00 +26°C° 0 mm 4 mps 611 mmHg 24%
    18:00 +22°C° 0 mm 3 mps 610 mmHg 31%
    19:00 +18°C° 0 mm 2 mps 609 mmHg 39%
    20:00 +17°C° 0 mm 2 mps 609 mmHg 43%
    21:00 +16°C° 0 mm 1 mps 609 mmHg 47%
    22:00 +15°C° 0 mm 1 mps 610 mmHg 52%
    23:00 +14°C° 0 mm 1 mps 609 mmHg 52%

    14 December, Friday

    Time Temperature Precipitation Wind Pressure Humidity
    00:00 +14°C° 0 mm 1 mps 609 mmHg 52%
    01:00 +14°C° 0 mm 1 mps 609 mmHg 52%
    02:00 +14°C° 0 mm 1 mps 609 mmHg 50%
    03:00 +14°C° 0 mm 1 mps 609 mmHg 49%
    04:00 +14°C° 0 mm 1 mps 609 mmHg 48%
    05:00 +15°C° 0 mm 1 mps 609 mmHg 44%
    06:00 +16°C° 0 mm 1 mps 610 mmHg 41%
    07:00 +19°C° 0 mm 1 mps 611 mmHg 38%
    08:00 +21°C° 0 mm 1 mps 612 mmHg 31%
    09:00 +24°C° 0 mm 1 mps 613 mmHg 25%
    10:00 +26°C° 0 mm 2 mps 614 mmHg 18%
    11:00 +28°C° 0 mm 2 mps 613 mmHg 18%
    12:00 +29°C° 0 mm 3 mps 613 mmHg 17%
    13:00 +30°C° 0 mm 4 mps 613 mmHg 16%
    14:00 +29°C° 0 mm 4 mps 612 mmHg 19%
    15:00 +29°C° 0 mm 4 mps 612 mmHg 21%
    16:00 +28°C° 0 mm 4 mps 611 mmHg 23%
    17:00 +25°C° 0 mm 3 mps 610 mmHg 29%
    18:00 +21°C° 0 mm 3 mps 610 mmHg 35%
    19:00 +19°C° 0 mm 2 mps 609 mmHg 41%
    20:00 +18°C° 0 mm 2 mps 609 mmHg 46%
    21:00 +16°C° 0 mm 1 mps 609 mmHg 51%
    22:00 +15°C° 0 mm 1 mps 609 mmHg 56%
    23:00 +15°C° 0 mm 1 mps 609 mmHg 58%

    15 December, Saturday

    Time Temperature Precipitation Wind Pressure Humidity
    00:00 +14°C° 0 mm 1 mps 608 mmHg 60%
    01:00 +14°C° 0 mm 1 mps 608 mmHg 62%
    02:00 +13°C° 0 mm 1 mps 608 mmHg 62%
    03:00 +13°C° 0 mm 1 mps 608 mmHg 62%
    04:00 +13°C° 0 mm 1 mps 608 mmHg 62%
    05:00 +15°C° 0 mm 1 mps 608 mmHg 57%
    06:00 +16°C° 0 mm 1 mps 609 mmHg 53%
    07:00 +18°C° 0 mm 1 mps 610 mmHg 49%
    08:00 +21°C° 0 mm 1 mps 611 mmHg 41%
    09:00 +24°C° 0 mm 1 mps 612 mmHg 34%
    10:00 +26°C° 0 mm 2 mps 613 mmHg 26%
    11:00 +28°C° 0 mm 2 mps 613 mmHg 24%
    12:00 +29°C° 0 mm 2 mps 613 mmHg 23%
    13:00 +30°C° 0 mm 2 mps 613 mmHg 21%
    14:00 +29°C° 0 mm 3 mps 612 mmHg 24%
    15:00 +28°C° 0 mm 3 mps 611 mmHg 27%
    16:00 +27°C° 0 mm 4 mps 611 mmHg 31%
    17:00 +24°C° 0 mm 3 mps 610 mmHg 39%
    18:00 +21°C° 0 mm 3 mps 610 mmHg 48%
    19:00 +19°C° 0 mm 2 mps 609 mmHg 57%
    20:00 +18°C° 0 mm 2 mps 610 mmHg 61%
    21:00 +17°C° 0 mm 2 mps 610 mmHg 65%
    22:00 +16°C° 0 mm 2 mps 610 mmHg 70%
    23:00 +16°C° 0 mm 1 mps 609 mmHg 73%
    Show more